Tracking 25372 objects as of 24-Jan-2022
HD Live streaming from Space Station
objects crossing your sky now

ONEWEB-0045

Track ONEWEB-0045 now!
10-day predictions
ONEWEB-0045 is classified as:


NORAD ID: 45151
Int'l Code: 2020-008W
Perigee: 1,223.7 km
Apogee: 1,226.0 km
Inclination: 87.9 °
Period: 109.8 minutes
Semi major axis: 7595 km
RCS: Unknown
Launch date: February 6, 2020
Source: United Kingdom (UK)
Launch site: TYURATAM MISSILE AND SPACE COMPLEX (TTMTR)
aabbcc
Your satellite tracking list
Your tracking list is empty




NASA's NSSDC Master Catalog

Two Line Element Set (TLE):
1 45151U 20008W   22024.10783229  .00000145  00000-0  37269-3 0  9998
2 45151  87.8883 340.1776 0001533  81.5195 278.6107 13.11415934100812
Source of the keplerian elements: AFSPC